Sigfox identifier Datetime Temperature Humidity SNR
003C062E 2018-10-09 09:02:26 21 40 19.3
003C062E 2018-10-09 08:01:46 21 40 19.7
003C062E 2018-10-09 07:01:08 20.8 39 20
003C062E 2018-10-09 06:00:30 20.9 39 20.2
003C062E 2018-10-09 04:59:50 20.9 39 20.4
003C062E 2018-10-09 01:58:01 20.9 38 20.9
003C062E 2018-10-09 00:57:19 20.9 38 19.4
003C062E 2018-10-08 23:56:42 21 38 19.4
003C062E 2018-10-08 22:55:58 21 38 19.7
003C062E 2018-10-08 21:55:23 21 37 20.2
003C062E 2018-10-08 20:54:44 21 37 20.5
003C062E 2018-10-08 19:54:07 21 37 20.6
003C062E 2018-10-08 18:53:29 21 37 20.6
003C062E 2018-10-08 17:52:51 21 37 20.5
003C062E 2018-10-08 16:52:12 21 37 20.6
003C062E 2018-10-08 15:51:35 21 37 21
003C062E 2018-10-08 14:50:49 20.8 37 21.1
003C062E 2018-10-08 13:50:03 20.8 37 21.3
003C062E 2018-10-08 12:49:22 20.8 37 21.3
003C062E 2018-10-08 11:48:40 20.4 34 21.4
003C062E 2018-10-08 10:48:03 20.4 34 22.5
003C062E 2018-10-08 09:47:26 20.4 34 22.4
003C062E 2018-10-08 08:46:48 20.4 35 22.5
003C062E 2018-10-08 07:46:09 20.4 35 22.7
003C062E 2018-10-08 06:45:31 20.4 35 22.9
003C062E 2018-10-08 05:44:50 20.4 36 23
003C062E 2018-10-08 04:44:11 20.4 36 22.9
003C062E 2018-10-08 03:43:33 20.4 36 22.8
003C062E 2018-10-08 02:42:54 20.4 37 22.6
003C062E 2018-10-08 01:42:11 20.4 37 22.8
003C062E 2018-10-08 00:41:29 20.4 37 22.7
003C062E 2018-10-07 23:40:44 20.5 38 22.8
003C062E 2018-10-07 22:40:04 20.6 38 23
003C062E 2018-10-07 21:39:24 20.6 38 22.9
003C062E 2018-10-07 20:38:42 20.6 38 23
003C062E 2018-10-07 19:38:02 20.6 38 22.9
003C062E 2018-10-07 18:37:25 20.6 38 23
003C062E 2018-10-07 17:36:47 20.6 38 23.2
003C062E 2018-10-07 16:36:09 20.6 38 23.4
003C062E 2018-10-07 15:35:32 20.6 38 23.6
003C062E 2018-10-07 14:34:55 20.6 38 23.4
003C062E 2018-10-07 13:34:17 20.6 38 23.3
003C062E 2018-10-07 12:33:41 20.6 38 23.4
003C062E 2018-10-07 11:33:07 20.6 38 23.5
003C062E 2018-10-07 10:32:30 20.6 39 23.7
003C062E 2018-10-07 09:31:56 20.6 39 23
003C062E 2018-10-07 08:31:19 20.7 39 23.1
003C062E 2018-10-07 07:30:43 20.7 39 23.2
003C062E 2018-10-07 06:30:07 20.7 39 23.2
003C062E 2018-10-07 05:29:30 20.8 39 23.2
003C062E 2018-10-07 04:28:52 20.8 39 23
003C062E 2018-10-07 03:28:15 20.8 39 23.1
003C062E 2018-10-07 02:27:38 20.8 39 23.1
003C062E 2018-10-07 01:27:02 20.8 39 23.3
003C062E 2018-10-07 00:26:24 20.8 40 23.2
003C062E 2018-10-06 23:25:44 20.8 40 23.3
003C062E 2018-10-06 22:25:06 20.8 40 23.2
003C062E 2018-10-06 21:24:32 20.8 39 23.2
003C062E 2018-10-06 20:23:58 20.8 40 23.3
003C062E 2018-10-06 19:23:19 20.9 40 23.2
003C062E 2018-10-06 18:22:39 20.9 40 23.2
003C062E 2018-10-06 17:21:59 20.9 40 23.1
003C062E 2018-10-06 16:21:18 20.9 40 23
003C062E 2018-10-06 15:20:36 20.9 40 22.9
003C062E 2018-10-06 14:19:57 20.9 40 22.6
003C062E 2018-10-06 13:19:17 20.9 40 22.6
003C062E 2018-10-06 12:18:38 20.9 40 22.6
003C062E 2018-10-06 11:17:55 21 40 22.3
003C062E 2018-10-06 10:17:15 21 40 22.2
003C062E 2018-10-06 09:16:31 20.9 40 22
003C062E 2018-10-06 08:15:50 21 40 21.9
003C062E 2018-10-06 07:15:14 21 41 21.7
003C062E 2018-10-06 06:14:36 21 41 21.5
003C062E 2018-10-06 05:13:55 21 41 21.1
003C062E 2018-10-06 04:13:15 21 41 20.8
003C062E 2018-10-06 03:12:36 21.2 42 20.6
003C062E 2018-10-06 02:11:58 21.2 42 20.2
003C062E 2018-10-06 01:11:20 21.2 42 20.4
003C062E 2018-10-06 00:10:42 21.3 42 20.1
003C062E 2018-10-05 23:10:00 21.3 42 20.1
003C062E 2018-10-05 22:09:19 21.4 43 19.6
003C062E 2018-10-05 21:08:40 21.4 43 21
003C062E 2018-10-05 20:07:59 21.4 43 20.7
003C062E 2018-10-05 19:07:18 21.5 43 20.4
003C062E 2018-10-05 18:06:39 21.7 43 20
003C062E 2018-10-05 17:05:58 21.7 43 19.7
003C062E 2018-10-05 16:05:19 21.7 43 19.8
003C062E 2018-10-05 15:04:40 21.6 42 19.7
003C062E 2018-10-05 14:04:00 21.5 41 19.8
003C062E 2018-10-05 13:03:21 21.4 40 19.9
003C062E 2018-10-05 12:02:42 21.4 39 19.9
003C062E 2018-10-05 09:00:43 20.9 34 20.1
003C062E 2018-10-05 08:00:06 20.8 31 20.3
003C062E 2018-10-05 06:59:25 20.7 30 20.3
003C062E 2018-10-05 05:58:46 20.8 29 20.2
003C062E 2018-10-05 04:58:10 20.8 28 20.4
003C062E 2018-10-05 03:57:29 20.8 28 20.6
003C062E 2018-10-05 02:56:51 20.8 29 20.7
003C062E 2018-10-05 01:56:11 20.9 29 20.9
003C062E 2018-10-05 00:55:31 21 29 21.1
003C062E 2018-10-04 23:54:54 21 30 21.4
003C062E 2018-10-04 22:54:16 21.1 30 21.7
003C062E 2018-10-04 21:53:40 21.2 29 21.8
003C062E 2018-10-04 20:52:59 21.2 29 22
003C062E 2018-10-04 19:52:21 21.2 28 22.1
003C062E 2018-10-04 18:51:40 21.2 28 22.5
003C062E 2018-10-04 17:50:58 21.2 28 18
003C062E 2018-10-04 15:49:47 21 28 18.6
003C062E 2018-10-04 14:49:05 21 28 18.6
003C062E 2018-10-04 13:48:25 21 29 19.2
003C062E 2018-10-04 12:47:41 21 29 20.3
003C062E 2018-10-04 11:47:02 20.8 30 20.1
003C062E 2018-10-04 10:46:20 20.8 33 14.8
003C062E 2018-10-04 09:45:39 20.6 42 0